国际通讯卫星 10-02星 (INTELSAT 10-02)

导读

INTELSAT 1002是国际通信卫星组织(ITSO)于北京时间2004年6月16日8时发射的一颗通信卫星,隶属于国际通信卫星系列,主要服务于跨区域广播电视传输、固定通信业务,覆盖大西洋、欧洲等区域,为商业通信、海事航空通信提供卫星转发服务,支撑跨洋洲际通信网络,提升全球通信互联能力,服役期间保障了多国媒体通信与数据传输需求。

基本信息
目录编号:
28358
目录名称:
INTELSAT 1002
国际标识:
2004-022A
轨道中心:
EARTH
卫星名称:
国际通讯卫星 10-02星
卫星全名:
国际通讯卫星 10-02星 (INTELSAT 10-02)
卫星状态:
在轨 (已飞行8036 天)
发射日期:
2004-06-16 UTC
国别 :
(ITSO)
星等 :
--
轨道信息
数据来源 国际轨道数据 AOE轨道数据
星历时间 2026-06-16T23:52:22+0800
16小时前
查看轨道信息
2026-06-16T05:00:00+0800
1天前
查看轨道信息
半长轴 42164.728km 42164.672km
偏心率 0.00002 0.0000238
轨道倾角 0.013° 0.008°
近地点辐角 252.227° 249.254°
升交点赤经 313.024° 337.330°
平近点角 296.760° 351.559°
近地点 35785.747km 35785.531km
远地点 35787.435km 35787.539km
周期 1436.097分钟 1436.094分钟
每日圈数 1.002718 1.00272
详细信息
卫星平台:
Eurostar-3000
平衡模式:
三轴稳定
覆盖范围:
全球
运营商:
国际卫星通信公司
运营商所在国:
美国
制造商(研发单位):
阿斯特里姆
制造商所在国:
法国大都会
使用方式:
暂无
卫星简介
从1965年4月至1984年3月,国际通信卫星组织发射了5代、6种不同性能的卫星共计35颗,除6颗卫星因运载火箭和远地点发动机故障而发射失败外,其余29颗卫星均被送到了预定的静止轨道位置。1984年8月前后,国际通信卫星组织利用部署在大西洋、太平洋、印度洋上空的15颗国际通信卫星,为遍布世界各地170多个国家或地区提供电话、电传、电报、电视和数据传输等电信业务;该卫星仍在工作。
2D轨道图
3D轨道图
轨道高度分析图
轨道倾角分析图
轨道综合分析图
查看轨道综合分析图